Location: *
(51.4660°N, 0.3360°W)
Time: 03:37:52
(UTC+00:00)

USA 234 - Pass Details

Date: 19 September 2019
Orbit: 1103 x 1105 km, 123.0° (Epoch: 17 October)

Event Time Altitude Azimuth Distance (km) Brightness Sun altitude
Exits shadow 19:28:42 - 68° (ENE) 3,237 5.3 -13.2°
Reaches altitude 10° 19:29:25 10° 67° (ENE) 2,967 5.1 -13.3°
Maximum altitude 19:35:49 59° 350° (N) 1,263 3.7 -14.3°
Drops below altitude 10° 19:42:12 10° 273° (W) 2,965 6.7 -15.2°
Sets 19:44:43 0° 270° (W) 3,922 7.5 -15.6°
